Home   Weather   Gaziantep   Past weeks

Flag for Turkey Past Weather in Gaziantep, Turkey — Yesterday and Last 2 Weeks

Now
88 °F

Passing clouds.


Feels Like: 86 °F
Forecast: 69 / 94 °F
Wind: 5 mph from Northeast

Location: Gaziantep Airport

Current Time: Aug 31, 2016 at 11:15:06 AM

Latest Report: Aug 31, 2016 at 10:20 AM


Visibility: N/A

Pressure: 29.86 "Hg (27.12 "Hg at 856m altitude)

Humidity: 31%

Dew Point: 54 °F

Location of GaziantepLocation

Past Weather in Gaziantep — Graph

°F

Gaziantep Temperature Yesterday

Maximum temperature yesterday: 99 °F (at 2:20 PM)
Minimum temperature yesterday: 64 °F (at 5:20 AM)
Average temperature yesterday: 83 °F

High & Low Weather Summary for the Past Weeks

 TemperatureHumidityPressure
High104 °F (Aug 24, 2:50 PM)78% (Aug 17, 5:50 AM)29.95 "Hg (Aug 17, 5:50 AM)
Low61 °F (Aug 28, 5:50 AM)9% (Aug 27, 4:20 PM)29.65 "Hg (Aug 17, 2:20 PM)
Average85 °F37%29.83 "Hg
* Reported Aug 16 9:20 AM — Aug 31 9:50 AM, Gaziantep, Weather by CustomWeather, © 2016

Note: Actual official high and low records may vary slightly from our data, if they occured in-between our weather recording intervals... More about our weather records

Advertising

Gaziantep Weather History for the Previous 24 Hours

Scroll right to see more
 ConditionsComfort  
Time TempWeatherWind HumidityBarometerVisibility
9:50 AM
Wed, Aug 31
86 °FPassing clouds.3 mph38%29.86 "HgN/A
9:20 AM84 °FSunny.2 mph37%29.86 "Hg10 mi
8:50 AM82 °FPassing clouds.3 mph37%29.86 "HgN/A
8:20 AM79 °FSunny.6 mph45%29.86 "Hg10 mi
7:50 AM73 °FSunny.6 mph53%29.86 "Hg10 mi
7:20 AM68 °FSunny.6 mph64%29.86 "Hg10 mi
6:50 AM64 °FClear.5 mph68%29.86 "Hg10 mi
6:20 AM63 °FClear.5 mph73%29.86 "Hg10 mi
5:50 AM66 °FPassing clouds.3 mph60%29.86 "HgN/A
5:20 AM66 °FPassing clouds.6 mph64%29.83 "HgN/A
4:50 AM66 °FClear.6 mph64%29.83 "Hg10 mi
4:20 AM66 °FClear.6 mph68%29.83 "Hg10 mi
3:50 AM70 °FClear.6 mph64%29.83 "Hg10 mi
3:20 AM70 °FClear.No wind64%29.83 "Hg10 mi
2:50 AM70 °FClear.6 mph60%29.83 "Hg10 mi
2:20 AM70 °FClear.5 mph64%29.83 "Hg10 mi
1:50 AM72 °FPassing clouds.5 mph65%29.83 "HgN/A
1:20 AM73 °FPassing clouds.5 mph61%29.86 "HgN/A
12:50 AM75 °FClear.6 mph54%29.86 "Hg10 mi
12:20 AM75 °FPassing clouds.5 mph57%29.86 "HgN/A
11:50 PM
Tue, Aug 30
77 °FPassing clouds.3 mph54%29.86 "HgN/A
11:20 PM79 °FClear.6 mph54%29.86 "Hg10 mi
10:50 PM81 °FClear.6 mph51%29.86 "Hg10 mi
10:20 PM81 °FPassing clouds.3 mph51%29.86 "HgN/A
9:50 PM82 °FPassing clouds.5 mph45%29.86 "HgN/A
9:20 PM84 °FClear.7 mph43%29.86 "Hg10 mi
8:50 PM84 °FClear.No wind43%29.86 "Hg10 mi
8:20 PM86 °FClear.5 mph40%29.86 "Hg10 mi
7:50 PM88 °FSunny.9 mph38%29.86 "Hg10 mi
7:20 PM90 °FSunny.8 mph36%29.83 "Hg10 mi
6:50 PM91 °FSunny.7 mph30%29.83 "Hg10 mi
6:20 PM93 °FSunny.9 mph28%29.83 "Hg10 mi
5:50 PM95 °FPassing clouds.8 mph25%29.83 "HgN/A
5:20 PM97 °FPassing clouds.8 mph22%29.83 "HgN/A
4:50 PM99 °FPassing clouds.10 mph17%29.83 "HgN/A
4:20 PM99 °FPassing clouds.9 mph17%29.83 "HgN/A
3:50 PM99 °FPassing clouds.9 mph16%29.86 "HgN/A
3:20 PM99 °FPassing clouds.9 mph16%29.86 "HgN/A
2:50 PM99 °FPassing clouds.10 mph17%29.86 "HgN/A
2:20 PM99 °FSunny.7 mph16%29.86 "Hg10 mi
1:50 PM97 °FSunny.3 mph16%29.89 "Hg10 mi
1:20 PM97 °FPassing clouds.6 mph16%29.89 "HgN/A
12:50 PM95 °FSunny.3 mph16%29.89 "Hg10 mi
12:20 PM93 °FPassing clouds.6 mph16%29.89 "HgN/A
11:50 AM93 °FSunny.2 mph16%29.92 "Hg10 mi
11:20 AM93 °FSunny.2 mph20%29.92 "Hg10 mi
Weather by CustomWeather, © 2016

See weather overviewHow to use our weather pages